sat.trackr.live / text

‹ back to catalog

STARLINK-30125

NORAD 56701 · 2023-067P

PAYLOAD ACTIVE UNKNOWN

§ Identity

Operator
Country
US
Launch date
2023-05-19
Launch site
AFETR
Launch vehicle
Mass (kg)
RCS (m²)

Purposes: comms

External: N2YO · Heavens-Above · Gunter

§ Orbital elements

Epoch: 2026-05-25T05:11:46.262688Z

Period
94.27 min
Inclination
43.0022°
Eccentricity
0.0001634
Mean motion
15.27565960 rev/d
Perigee alt
482.0 km
Apogee alt
484.2 km
Semi-major
6,861.2 km
B*
-5.3276e-5
RAAN
198.8993°
Arg perigee
260.8755°
Mean anomaly
99.1912°
Rev number
16,740

§ Raw data

STARLINK-301251 56701U 23067P   26145.21650767 -.00001727  00000+0 -53276-4 0  99942 56701  43.0022 198.8993 0001634 260.8755  99.1912 15.27565960167401

JSON: /api/v1/satellites/56701 · /tle

For live sub-satellite position, see the globe view (requires WebGL).

§ Visibility from observer

Set your observer location to see the next 7 days of passes ≥ 10°. The values pass through the URL so the page stays shareable.

No JS? Fill the form by hand. The geolocation button needs JavaScript.